sat.trackr.live / text

‹ back to catalog

STARLINK-32251

NORAD 60940 · 2024-155S

PAYLOAD ACTIVE UNKNOWN

§ Identity

Operator
Country
US
Launch date
2024-08-31
Launch site
AFWTR
Launch vehicle
Mass (kg)
RCS (m²)

Purposes: comms

External: N2YO · Heavens-Above · Gunter

§ Orbital elements

Epoch: 2026-09-21T08:35:08.506176Z

Period
93.85 min
Inclination
53.1587°
Eccentricity
0.0001295
Mean motion
15.34413800 rev/d
Perigee alt
461.8 km
Apogee alt
463.5 km
Semi-major
6,840.8 km
B*
-1.3788e-4
RAAN
297.6141°
Arg perigee
87.9823°
Mean anomaly
272.1328°
Rev number
11,634

§ Raw data

STARLINK-322511 60940U 24155S   26264.35773734 -.00005034  00000+0 -13788-3 0  99982 60940  53.1587 297.6141 0001295  87.9823 272.1328 15.34413800116343

JSON: /api/v1/satellites/60940 · /tle

For live sub-satellite position, see the globe view (requires WebGL).

§ Visibility from observer

Set your observer location to see the next 7 days of passes ≥ 10°. The values pass through the URL so the page stays shareable.

No JS? Fill the form by hand. The geolocation button needs JavaScript.